User: anonymous   Login
Location: Unspecified
(0.0000°N, 0.0000°E)
Time: 01:47:13
(UTC+00:00)
Language:

Radarsat - Orbit

View from above orbital plane
View from above orbital plane
View from above satellite
View from above satellite

Ground track
Ground track

The orbit data is extracted from the following two-line orbital elements,

1 23710U 95059A   19022.55990791  .00000014  00000-0  22057-4 0  9995
2 23710  98.5743  33.5708 0001234  90.0973 270.0351 14.30736498212036
Epoch (UTC): 22 January 2019 13:26:16
Eccentricity: 0.0001234
inclination: 98.5743°
perigee height: 788 km
apogee height: 790 km
right ascension of ascending node: 33.5708°
argument of perigee: 90.0973°
revolutions per day: 14.30736498
mean anomaly at epoch: 270.0351°
orbit number at epoch: 21203

The dashed part of the orbit path shows where the satellite is in the earth's shadow,  

DLR